Flag for Tunisia Weather past 2 weeks in Sfax, Tunisia

Now
59 °F

Passing clouds.


Feels Like: 58 °F
Forecast: 54 / 67 °F
Wind: 7 mph from North

Location: Sfax El-Maou


UV Index: 7 (High)

Visibility: 5 mi


Pressure: 29.92 "Hg

Humidity: 77%

Dew point: 52 °F

Location of SfaxLocation

Historic Weather in Sfax

°F

Sfax temperature yesterday

Maximum temperature yesterday: 73 °F (at 2:00 PM)
Minimum temperature yesterday: 54 °F (at 4:00 AM)
Average temperature yesterday: 64 °F

Past Weeks' High & Low Weather Summary

 TemperatureHumidityPressure
High81 °F (Apr 9, 2:00 PM)100% (Apr 1, 5:00 AM)30.24 "Hg (Apr 1, 5:00 AM)
Low50 °F (Apr 1, 5:00 AM)22% (Apr 5, 2:00 PM)29.53 "Hg (Apr 3, 4:00 PM)
Average65 °F65%29.99 "Hg
* Reported Apr 1 4:00 AM — Apr 16 4:00 AM, Sfax, Weather by CustomWeather, © 2014

Note: Actual official high and low records may vary slightly from our data, if they occured in-between our weather recording intervals... More about our weather records

Advertising

Historic Weather Conditions — Data for Previous 24 hours

 ConditionsComfort  
Time TempWeatherWind HumidityBarometerVisibility
4:00 AM
Apr 16
57 °FPassing clouds.6 mph82%29.92 "Hg5 mi
2:00 AM63 °FPassing clouds.6 mph68%29.92 "Hg5 mi
12:00 AM68 °FPassing clouds.13 mph53%29.92 "Hg5 mi
11:00 PM
Apr 15
68 °FPassing clouds.13 mph56%29.92 "Hg5 mi
10:00 PM64 °FPassing clouds.2 mph78%29.89 "Hg5 mi
9:00 PM64 °FPassing clouds.6 mph83%29.89 "Hg5 mi
8:00 PM66 °FPassing clouds.8 mph78%29.86 "HgN/A
7:00 PM68 °FPassing clouds.7 mph69%29.86 "HgN/A
6:00 PM68 °FScattered clouds.9 mph69%29.86 "HgN/A
5:00 PM70 °FScattered clouds.12 mph60%29.86 "HgN/A
4:00 PM72 °FPassing clouds.15 mph50%29.86 "HgN/A
3:00 PM73 °FPassing clouds.16 mph50%29.89 "HgN/A
2:00 PM73 °FPassing clouds.15 mph50%29.92 "HgN/A
1:00 PM72 °FPassing clouds.16 mph53%29.95 "HgN/A
12:00 PM72 °FPassing clouds.15 mph57%29.98 "HgN/A
11:00 AM70 °FScattered clouds.12 mph64%30.01 "HgN/A
10:00 AM68 °FScattered clouds.10 mph64%30.01 "HgN/A
9:00 AM66 °FScattered clouds.9 mph68%30.04 "HgN/A
8:00 AM63 °FPassing clouds.1 mph77%30.04 "HgN/A
7:00 AM55 °FPassing clouds.3 mph88%30.04 "HgN/A
6:00 AM54 °FPassing clouds.No wind88%30.01 "Hg5 mi
5:00 AM54 °FPassing clouds.2 mph88%30.01 "Hg5 mi
Weather by CustomWeather, © 2014

See weather overview